Regional Weather Roundup
Issued by NWS

Home | Current Version | Previous Version | Graphics & Text | Print | Product List | Glossary Off
Versions: 1 2 3 4 5 6 7 8 9 10 11 12 13 14 15 16 17 18 19 20 21 22 23 24 25 26 27 28 29 30 31 32 33 34 35 36 37 38 39 40 41 42 43 44 45 46 47 48 49 50

000
ASUS43 KDMX 222306
RWRIA

WEATHER ROUNDUP FOR IOWA
NATIONAL WEATHER SERVICE DES MOINES IA
600 PM CDT SUN APR 22 2018

NOTE: "FAIR" INDICATES FEW OR NO CLOUDS BELOW 12,000 FEET WITH NO
SIGNIFICANT WEATHER AND/OR OBSTRUCTIONS TO VISIBILITY.

* - THESE STATIONS ARE NOT NWS STATIONS...THUS NOT UNDER NWS
QUALITY CONTROL.  THEY ALSO DO NOT REPORT WEATHER SUCH
AS PRECIPITATION OR FOG.

IAZ001>003-012>014-020>022-031>034-043>046-230000-
   NORTHWEST IOWA

CITY           SKY/WX    TMP DP  RH WIND       PRES   REMARKS
CARROLL *      CLOUDY    66  28  24 E15       30.17S
CHEROKEE *     SUNNY     60  41  49 NE10      30.20F
DENISON *      CLOUDY    64  28  25 E13       30.18S
LE MARS *      SUNNY     63  37  39 E10G20    30.19F
ORANGE CITY *  SUNNY     63  43  48 E10G17    30.20S
SHELDON *      SUNNY     59  41  51 SE14G20   30.20S
SIOUX CITY     SUNNY     67  31  26 E13G21    30.16F
SPENCER        SUNNY     55  40  56 NE13      30.23F
STORM LAKE *   SUNNY     59  43  55 NE15      30.20S
$$

IAZ055>058-069>071-079>083-090>094-230000-
   SOUTHWEST IOWA

CITY           SKY/WX    TMP DP  RH WIND       PRES   REMARKS
ATLANTIC *     CLOUDY    66  30  26 NE12      30.14F
AUDUBON *      CLOUDY    64  21  19 NE10      30.17S
CLARINDA *     CLOUDY    70  34  26 E10G16    30.13S
COUNCIL BLFS * SUNNY     66  34  30 NE13G21   30.14S
CRESTON *      SUNNY     68  32  26 E14       30.14S
HARLAN  *      CLOUDY    66  30  26 E10       30.18F
LAMONI         SUNNY     69  36  29 E12       30.11S
RED OAK *      PTSUNNY   70  32  24 NE15      30.12S
SHENANDOAH *   CLOUDY    70  36  28 E9G15     30.11S
$$

IAZ047>049-059>061-072>074-084-230000-
   CENTRAL IOWA

CITY           SKY/WX    TMP DP  RH WIND       PRES   REMARKS
AMES           SUNNY     67  24  19 E14       30.17S
ANKENY *       SUNNY     66  21  18 E13       30.18R
BOONE *        CLOUDY    68  23  18 E14G21    30.16F
CHARITON *     SUNNY     68  30  24 NE12G18   30.13R
DES MOINES     CLOUDY    67  26  21 E8        30.16R
GRINNELL*      MOSUNNY   65  21  18 E14       30.18S
KNOXVILLE *    SUNNY     68  21  17 NE15G25   30.14R
MARSHALLTOWN   MOSUNNY   64  30  27 E17       30.18S
NEWTON *       MOSUNNY   66  19  16 E17       30.17R
PELLA *        SUNNY     65  16  15 NE6       30.16S
PERRY *        FAIR      64  16  15 E13       30.17S
$$

IAZ004>006-015-016-023>025-035-036-230000-
   NORTH CENTRAL IOWA

CITY           SKY/WX    TMP DP  RH WIND       PRES   REMARKS
ALGONA *       SUNNY     57  43  58 NE13      30.23S
CLARION *      SUNNY     64  32  29 E12G21    30.20F
ESTHERVILLE    SUNNY     47  39  74 E8        30.24F
FORT DODGE *   SUNNY     65  34  31 E10       30.19F
MASON CITY     SUNNY     61  41  47 NE12      30.24S
FOREST CITY *  FAIR      59  41  51 NE9       30.24S
WEBSTER CITY * CLOUDY    66  30  26 E13G20    30.17S
IOWA FALLS *   FAIR      66  30  26 E12       30.21S
$$

IAZ007>011-017>019-026>030-037>042-050>054-066-230000-
   NORTHEAST IOWA

CITY           SKY/WX    TMP DP  RH WIND       PRES   REMARKS
CEDAR RAPIDS   FAIR      67  30  25 E17       30.18S
CHARLES CITY * FAIR      63  34  34 NE14      30.23S
CLINTON *      FAIR      63  32  31 E15       30.21R
DECORAH *      FAIR      61  28  29 NE12      30.23F
DUBUQUE        FAIR      63  32  31 E14G21    30.22R
MONTICELLO *   FAIR      64  32  29 E12       30.20S
OELWEIN *      FAIR      64  34  32 E13       30.22R
WATERLOO       FAIR      66  34  30 E13       30.20S
$$

IAZ064-065-067-068-078-230000-
   EAST CENTRAL IOWA

CITY           SKY/WX    TMP DP  RH WIND       PRES   REMARKS
DAVENPORT      FAIR      63  28  26 E15       30.21S
IOWA CITY      FAIR      66  27  23 E14       30.19S
MT. PLEASANT * CLOUDY    63  18  17 E18       30.16R
MUSCATINE *    FAIR      64  30  27 NE15      30.18R
QUAD CITIES    FAIR      67  31  26 E14       30.17F
$$

IAZ062-063-075>077-085>089-095>099-230000-
   SOUTHEAST IOWA

CITY           SKY/WX    TMP DP  RH WIND       PRES   REMARKS
BURLINGTON     CLOUDY    63  20  19 E14       30.15R
FAIRFIELD *    CLOUDY    66  19  16 E16       30.15R
FORT MADISON * CLOUDY    63  27  25 E13G20    30.15S
KEOKUK *       CLOUDY    63  25  23 NE9       30.12F
OSKALOOSA *    FAIR      69  21  16 E15       30.15R
CENTERVILLE *    N/A     66  34  30 E13       30.14R
OTTUMWA        PTSUNNY   70  25  18 E16       30.13S
WASHINGTON *   MOSUNNY   66  23  19 E16       30.18R
$$

ABBREVIATIONS USED IN REMARKS
   TC - TEMPERATURES IN CELSIUS
  WCI - WIND CHILL INDEX
   HX - HEAT INDEX
  VSB - VISIBILITY
$$




USA.gov is the U.S. government's official web portal to all federal, state and local government web resources and services.